Hauptseite
METAR-TAF:

METAR-TAF

Flughäfen :

Plzeň, Tschechien

Breite: 49-40-31N, Länge: 13-16-29E, Höhe: 362 m

Beobachtung

Neuester Wetterbericht von vor 43 Minuten, um 08:00 UTC
Wind 3 kt aus Süd, variierte zwischen Süd/Südost und Südwest
Temperatur 11°C
Luftfeuchtigkeit 87%
Luftdruck 1022 hPa
Sichtweite 10 km oder mehr
Geschlossene Wolkendecke in der Höhe von 8900 ft

METAR: LKLN 240800Z AUTO 19003KT 160V220 9999 OVC089 11/09 Q1022

Zeit: 10:43 (08:43 UTC)


TAF: fehlend

Wetterbeobachtungen und Prognosen von mehr als 4000 Flughäfen (METAR und TAF Bericht).

Die verfügbaren Stationen werden durch gelbe und rote Markierungen auf der Karte dargestellt.

Führen Sie die Maus auf sie, um den Namen der Station zu sehen.

Darauf klicken, um die Beobachtung von Wetterbeobachtungen und Prognosen zu sehen.

Um die Karte zu ändern : klicken Sie auf den grünen Tasten mit einem schwarzen Kreuz Zum Vergrößern, auf den grünen Button mit einem Gedankenstrich zu verkleinern, oder auf die grünen Pfeile für benachbarte Karten.


METAR-TAF: